N9GF Weather Reports


Display with metric or nautical units.
time (UTC)temp
F
wind
direction
speed
MPH
gust
MPH
rain 1hr
in
rain 24hr
in
rain mn
in
humidity
%
barometer
mb
20260504044546 58 267 0.0 0.0 0.00 0.00 0.00 40 1002.9
20260504043037 58 290 0.0 0.0 0.00 0.00 0.00 42 1002.9
20260504041533 59 296 0.0 0.0 0.00 0.00 0.00 44 1002.6
20260504040034 59 234 0.0 0.0 0.00 0.00 0.00 46 1002.8
20260504034524 59 234 0.0 0.0 0.00 0.00 0.00 47 1002.9
20260504033020 59 269 0.0 0.0 0.00 0.00 0.00 48 1003.1
20260504031516 60 270 0.0 0.0 0.00 0.00 0.00 49 1003.2
20260504030011 60 270 0.0 0.0 0.00 0.00 0.00 49 1003.3
20260504024508 61 270 0.0 0.0 0.00 0.00 0.00 49 1003.3
20260504023003 62 315 0.0 0.0 0.00 0.00 0.00 49 1003.3
20260504021559 62 288 0.0 0.0 0.00 0.00 0.00 49 1003.2
20260504020106 62 236 0.0 0.0 0.00 0.00 0.00 49 1003.1
20260504014555 63 290 0.0 0.0 0.00 0.00 0.00 49 1002.8
20260504013052 64 255 0.0 0.0 0.00 0.00 0.00 49 1002.7
20260504011541 64 235 0.0 0.0 0.00 0.00 0.00 48 1002.5
20260504010037 65 315 1.0 0.0 0.00 0.00 0.00 47 1002.5
20260504004533 66 254 0.0 0.0 0.00 0.00 0.00 46 1002.5
20260504003027 67 292 0.0 0.0 0.00 0.00 0.00 45 1002.6
20260504001523 67 321 1.0 0.0 0.00 0.00 0.00 44 1002.6
20260504000019 67 332 1.0 0.0 0.00 0.00 0.00 43 1002.7
20260503234515 68 218 2.0 0.0 0.00 0.00 0.00 42 1002.7
20260503233010 68 265 2.0 0.0 0.00 0.00 0.00 42 1002.7
20260503231506 68 330 1.0 0.0 0.00 0.00 0.00 41 1002.7
20260503230002 68 340 2.0 0.0 0.00 0.00 0.00 41 1002.8
20260503224558 68 228 1.0 0.0 0.00 0.00 0.00 42 1003.0
20260503223053 68 328 1.0 0.0 0.00 0.00 0.00 41 1003.1
20260503221549 67 290 2.0 0.0 0.00 0.00 0.00 42 1003.2
20260503220045 67 294 2.0 0.0 0.00 0.00 0.00 41 1003.3
20260503214540 67 322 2.0 0.0 0.00 0.00 0.00 42 1003.4
20260503213042 67 231 2.0 0.0 0.00 0.00 0.00 42 1003.8
20260503211536 68 227 3.0 0.0 0.00 0.00 0.00 39 1004.1
20260503210027 69 296 3.0 0.0 0.00 0.00 0.00 37 1004.3
20260503204522 69 311 2.0 0.0 0.00 0.00 0.00 38 1004.6
20260503203018 69 328 3.0 0.0 0.00 0.00 0.00 36 1005.1
20260503201514 69 221 2.0 0.0 0.00 0.00 0.00 36 1005.2
20260503200010 67 227 3.0 0.0 0.00 0.00 0.00 38 1005.3
20260503194505 66 311 2.0 0.0 0.00 0.00 0.00 40 1005.5
20260503193000 65 236 3.0 0.0 0.00 0.00 0.00 39 1005.7
20260503191559 63 271 2.0 0.0 0.00 0.00 0.00 38 1005.9
20260503190105 60 259 3.0 0.0 0.00 0.00 0.00 36 1006.1
20260503184548 58 227 3.0 0.0 0.00 0.00 0.00 32 1006.5
20260503183056 56 304 3.0 0.0 0.00 0.00 0.00 28 1006.8
20260503181539 54 238 2.0 0.0 0.00 0.00 0.00 20 1007.3
20260503180046 53 240 2.0 0.0 0.00 0.00 0.00 6 1007.6
20260503174531 52 232 1.0 0.0 0.00 0.00 0.00 100 1008.2
20260503173026 52 243 1.0 0.0 0.00 0.00 0.00 100 1008.7
20260503171533 52 223 2.0 0.0 0.00 0.00 0.00 100 1009.5
20260503100110 44 256 0.0 0.0 0.00 0.00 0.00 49 1011.3
20260503081554 45 305 0.0 0.0 0.00 0.00 0.00 51 1012.1
20260503071600 45 297 0.0 0.0 0.00 0.00 0.00 50 1012.3
20260503054542 44 315 0.0 0.0 0.00 0.00 0.00 50 1012.9
20260503053038 44 327 0.0 0.0 0.00 0.00 0.00 50 1013.0
20260503051537 45 327 0.0 0.0 0.00 0.00 0.00 50 1013.1